Regional Weather Roundup
Issued by NWS

Home | Current Version | Previous Version | Text Only | Print | Product List | Glossary On
Versions: 1 2 3 4 5 6 7 8 9 10 11 12 13 14 15 16 17 18 19 20 21 22 23 24 25 26 27
000
ASUS45 KREV 250510
RWRNV
NEVADA REGIONAL WEATHER ROUNDUP
NATIONAL WEATHER SERVICE RENO NV
1000 PM PDT TUE MAY 24 2016

NOTE: "FAIR" INDICATES FEW OR NO CLOUDS BELOW 12,000 FEET WITH NO
SIGNIFICANT WEATHER AND/OR OBSTRUCTIONS TO VISIBILITY.

NVZ001-003-004-250600-
WESTERN NEVADA

CITY           SKY/WX    TMP DP  RH WIND       PRES   REMARKS
RENO           CLOUDY    55  38  52 NW13      30.01R
CARSON CITY    CLOUDY    50  37  62 CALM      30.04R
MINDEN         FAIR      48  39  71 S10       30.04R
SLIDE MTN        N/A     32  30  93 NW7         N/A
FALLON         CLOUDY    53  46  77 SE10      29.98R
LOVELOCK       CLOUDY    55  41  59 E3        29.96R
HAWTHORNE      MOCLDY    55  39  54 NE7       30.01R
$$

NVZ002-CAZ072-073-250600-
NORTHERN AND CENTRAL SIERRA

CITY           SKY/WX    TMP DP  RH WIND       PRES   REMARKS
S. LAKE TAHOE  LGT RAIN  40  38  93 CALM      30.08R
TRUCKEE        CLOUDY    43  36  75 CALM      30.08S
SQUAW VLY 8000 NOT AVBL
SUSANVILLE     MOCLDY    50  43  76 NW9       30.03R
BLUE CANYON    CLOUDY    42  40  92 CALM      30.09R
MAMMOTH LAKES  MOCLDY    40  32  71 CALM      30.08R
BRIDGEPORT     MOCLDY    37  32  82 CALM      30.05R
$$

NVZ030-031-036-250600-
NORTHERN NEVADA

CITY           SKY/WX    TMP DP  RH WIND       PRES   REMARKS
ELKO           CLOUDY    46  40  79 CALM      29.99R
WINNEMUCCA     CLOUDY    51  40  65 S10       29.97R
WENDOVER       PTCLDY    54  36  50 NW14G22   29.94R
$$

NVZ035-037-250600-
CENTRAL NEVADA

CITY           SKY/WX    TMP DP  RH WIND       PRES   REMARKS
ELY            CLOUDY    42  38  85 SW6       30.03S
EUREKA           N/A     41  35  79 S3        30.01R
$$

NVZ013-014-250600-
SOUTH CENTRAL NEVADA

CITY           SKY/WX    TMP DP  RH WIND       PRES   REMARKS
TONOPAH        MOCLDY    51  36  56 CALM      30.02R
$$

NVZ017-020-022-250600-
SOUTHERN NEVADA

CITY           SKY/WX    TMP DP  RH WIND       PRES   REMARKS
LAS VEGAS      CLEAR     71  30  21 SW9       29.84R
N. LAS VEGAS   CLEAR     72  29  20 W8        29.87R
NELLIS AFB     CLEAR     72  30  21 S10       29.86R
HENDERSON      CLEAR     69  32  25 SW16      29.90R
MERCURY        PTCLDY    65  32  29 SW21      29.91R
$$




USA.gov is the U.S. government's official web portal to all federal, state and local government web resources and services.